Atlantic - Newfoundland: Past 24 Hour Conditions

 

Grand Étang

02:00 PM ADT 20 September 2014
This table is a summary of hourly weather conditions for the past 24 hours.
Date / Time
(ADT)
Wind(knots) Conditions Visibility(km) Pressure(kPa) Air tempC) Relative humidity(%) Dew pointC)
20 September 2014
14:00 SSW 17 gust 25 N/A N/A 102.2 15 51 5
13:00 SSW 25 gust 32 N/A N/A 102.4 14 48 3
12:00 SSW 23 gust 29 N/A N/A 102.5 14 43 1
11:00 SSW 22 gust 29 N/A N/A 102.5 13 42 0
10:00 SSW 19 gust 24 N/A N/A 102.6 13 57 5
9:00 SSW 15 gust 23 N/A N/A 102.6 12 53 3
8:00 SW 15 N/A N/A 102.7 12 61 5
7:00 WSW 16 N/A N/A 102.7 12 54 3
6:00 WSW 17 gust 22 N/A N/A 102.7 12 52 2
5:00 WSW 20 N/A N/A 102.7 12 55 3
4:00 WSW 15 gust 21 N/A N/A 102.7 12 61 4
3:00 WSW 16 N/A N/A 102.7 12 63 5
2:00 W 15 N/A N/A 102.6 12 64 5
1:00 WNW 14 gust 19 N/A N/A 102.6 11 61 4
0:00 WNW 15 N/A N/A 102.6 11 61 4
19 September 2014
23:00 WNW 15 N/A N/A 102.6 10 66 4
22:00 NW 13 gust 20 N/A N/A 102.5 10 66 4
21:00 NW 21 gust 26 N/A N/A 102.5 10 60 3
20:00 NW 23 N/A N/A 102.4 10 65 4
19:00 NW 24 gust 29 N/A N/A 102.4 10 58 2
18:00 NW 25 gust 34 N/A N/A 102.3 11 64 4
17:00 NNW 21 gust 33 N/A N/A 102.2 10 72 5
16:00 NW 34 gust 39 N/A N/A 102.0 10 78 7
15:00 WNW 26 gust 34 N/A N/A 101.9 10 73 5
14:00 WNW 24 gust 31 N/A N/A 101.9 11 63 4
 
Map of Atlantic - Newfoundland marine weather areas Southwestern Grand Banks - 44138 Banquereau - 44139 Tail of the Bank - 44140 Nickerson Bank - 44251 Northeast Burgeo Bank - 44255 Blanc-Sablon Airport Cap Whittle Chevery Natashquan Airport Heath Point Miscou Island Grand Étang Ingonish Beach North Mountain St.Paul Island J.A. Douglas McCurdy Sydney Airport Charlottetown Airport East Point North Cape Argentia Bonavista Burgeo Cape Race Corner Brook Daniel's Harbour Englee Ferolle Point La Scie Port aux Basques Rocky Harbour Sagona Island St. Anthony Airport St. John's Int'l Airport St. Lawrence Stephenville Airport Twillingate Winterland Wreckhouse Cartwright Airport Mary's Harbour Grates Cove Pool's Island Marticot Island Long Pond Îles de la Madeleine Airport
Legend: buoyBuoy land stationLand Station